Tracking 18796 objects as of 20-September-2017
HD Live streaming from Space Station
objects crossing your sky now

TDRS 8

Track TDRS 8 now!
TDRS 8 is classified as:


NORAD ID: 26388
Int'l Code: 2000-034A
Perigee: 35,765.5 km
Apogee: 35,819.8 km
Inclination: 7.6 °
Period: 1,436.0 minutes
Semi major axis: 42163 km
RCS: 25.9293 m2 (large)
Launch date: June 30, 2000
Source: United States (US)
Launch site: AIR FORCE EASTERN TEST RANGE (AFETR)

Tracking and communications with space shuttle, other missions.
aabbcc
Your satellite tracking list
Your tracking list is empty





NASA's NSSDC Master Catalog

Two Line Element Set (TLE):
1 26388U 00034A   17261.91085532 -.00000256 +00000-0 +00000-0 0  9998
2 26388 007.6451 055.0243 0006444 208.2765 151.8311 01.00275655063166
Source of the keplerian elements: AFSPC